Weather History for KSBM - December, 2013

Change the Weather History Date:

Monday, December 30, 2013

  Actual Average Record
Temperature  
Mean Temperature -5 °F -  
Max Temperature 1 °F 29 °F - (-1)
Min Temperature -11 °F 16 °F - (-1)
Degree Days  
Heating Degree Days 70    
Moisture  
Dew Point -9 °F    
Average Humidity 72    
Maximum Humidity 86    
Minimum Humidity 52    
Precipitation  
Precipitation 0.00 in - - ()
Sea Level Pressure  
Sea Level Pressure 30.23 in    
Wind  
Wind Speed 8 mph (West)    
Max Wind Speed 13 mph    
Max Gust Speed -    
Visibility 7 miles    
Events Snow    
Averages and records for this station are not official NWS values.
T = Trace of Precipitation, MM = Missing Value Source: NWS Daily Summary

Daily Weather History Graph

Daily Weather History Graph

Search for Another Location

Airport or City:

Trip Planner

Search our weather history database for the weather conditions in past years. The results will help you decide how hot, cold, wet, or windy it might be!

Date:

Astronomy

Dec. 30, 2013 Rise Set
Actual Time 7:25 AM CST 4:23 PM CST
Civil Twilight 6:52 AM CST 4:56 PM CST
Nautical Twilight 6:16 AM CST 5:32 PM CST
Astronomical Twilight 5:41 AM CST 6:07 PM CST
Moon 5:12 AM CST (12/30) 2:57 PM CST (12/30)
Length of Visible Light 10h 03m
Length of Day
8h 58m
Waning Crescent, 4% of the Moon is Illuminated
Dec 30
Waning Crescent
Jan 1
New
Jan 7
First Quarter
Jan 15
Full
Jan 23
Last Quarter

Hourly Weather History & Observations

Time (CST) Temp. Windchill Dew Point Humidity Pressure Visibility Wind Dir Wind Speed Gust Speed Precip Events Conditions
12:53 AM -2.9 °F -17.7 °F -8.0 °F 79% 30.24 in 10.0 mi WNW 8.1 mph - N/A   Clear
1:53 AM -6.0 °F -20.1 °F -9.9 °F 83% 30.27 in 10.0 mi WNW 6.9 mph - N/A   Clear
2:53 AM - - - N/A% 30.21 in - North - - N/A   Unknown
3:53 AM - - - N/A% 30.22 in - North - - N/A   Unknown
4:53 AM - - - N/A% 30.22 in - North - - N/A   Unknown
5:53 AM - - - N/A% 30.22 in - North - - N/A   Unknown
6:29 AM -11.0 °F -20.4 °F -14.1 °F 86% 30.24 in - Variable 3.5 mph - N/A   Partly Cloudy
6:53 AM -11.0 °F -27.6 °F -15.0 °F 83% 30.31 in 10.0 mi West 8.1 mph - N/A   Clear
7:53 AM -11.9 °F -27.3 °F -15.0 °F 86% 30.33 in 10.0 mi West 6.9 mph - N/A   Clear
8:53 AM -9.0 °F -22.3 °F -15.0 °F 75% 30.35 in 10.0 mi WNW 5.8 mph - N/A   Clear
9:53 AM -6.0 °F -18.6 °F -13.0 °F 72% 30.36 in 10.0 mi West 5.8 mph - N/A   Clear
10:53 AM -2.0 °F -13.9 °F -11.9 °F 63% 30.34 in 10.0 mi WNW 5.8 mph - N/A   Clear
11:53 AM 1.0 °F -10.3 °F -9.9 °F 60% 30.31 in 10.0 mi West 5.8 mph - N/A   Clear
12:53 PM 1.9 °F -10.6 °F -9.9 °F 58% 30.27 in 10.0 mi WSW 6.9 mph - N/A   Mostly Cloudy
1:53 PM 1.9 °F -13.8 °F -11.9 °F 52% 30.26 in 10.0 mi WNW 10.4 mph - N/A   Partly Cloudy
2:53 PM 1.9 °F -12.9 °F -11.0 °F 55% 30.19 in 10.0 mi WNW 9.2 mph - N/A   Mostly Cloudy
3:53 PM 1.0 °F -11.7 °F -11.0 °F 57% 30.19 in 10.0 mi West 6.9 mph - N/A   Overcast
4:53 PM 1.0 °F -12.9 °F -9.9 °F 60% 30.18 in 10.0 mi West 8.1 mph - N/A   Overcast
5:53 PM 1.0 °F -12.9 °F -9.9 °F 60% 30.18 in 10.0 mi West 8.1 mph - N/A   Overcast
6:53 PM -0.0 °F -14.2 °F -8.0 °F 69% 30.25 in 3.0 mi West 8.1 mph - 0.00 in Snow Light Snow
7:53 PM -0.0 °F -13.0 °F -7.1 °F 72% 30.25 in 3.0 mi West 6.9 mph - 0.00 in Snow Light Snow
8:23 PM -0.0 °F -17.1 °F -6.0 °F 76% 30.18 in 1.8 mi West 11.5 mph - 0.00 in Snow Light Snow
8:32 PM -0.0 °F -16.3 °F -6.0 °F 76% 30.18 in 2.5 mi West 10.4 mph - 0.00 in Snow Light Snow
8:44 PM -0.0 °F -17.1 °F -5.1 °F 79% 30.17 in 1.8 mi WNW 11.5 mph - 0.00 in Snow Light Snow
8:53 PM -0.0 °F -16.3 °F -5.1 °F 79% 30.24 in 1.8 mi West 10.4 mph - 0.00 in Snow Light Snow
8:57 PM -0.0 °F -14.2 °F -5.1 °F 79% 30.17 in 2.0 mi West 8.1 mph - 0.00 in Snow Light Snow
9:10 PM -0.0 °F -13.0 °F -5.1 °F 79% 30.16 in 3.0 mi WNW 6.9 mph - 0.00 in Snow Light Snow
9:22 PM 1.0 °F -14.0 °F -5.1 °F 75% 30.16 in 2.5 mi West 9.2 mph - 0.00 in Snow Light Snow
9:53 PM 1.0 °F -14.0 °F -5.1 °F 75% 30.22 in 4.0 mi WNW 9.2 mph - 0.00 in Snow Light Snow
10:36 PM 1.0 °F -14.9 °F -4.0 °F 79% 30.14 in 2.5 mi West 10.4 mph - 0.00 in Snow Light Snow
10:53 PM 1.0 °F -12.9 °F -4.0 °F 79% 30.20 in 3.0 mi West 8.1 mph - 0.00 in Snow Light Snow
11:53 PM 1.0 °F -16.6 °F -5.1 °F 75% 30.20 in 7.0 mi WNW 12.7 mph - 0.00 in   Overcast